Location: Erlenbrunn
(49.1717°N, 7.6142°E)
Time: 04:04:36
(UTC+00:00)

Nadezhda 3 Rocket - Pass Details

Date: 25 November 2020
Orbit: 956 x 1000 km, 82.9° (Epoch: 24 January)

Event Time Altitude Azimuth Distance (km) Brightness Sun altitude
Rises 18:15:24 0° 175° (S) 3,701 7.0 -25.1°
Reaches altitude 10° 18:17:56 10° 172° (S) 2,759 6.3 -25.6°
Enters shadow 18:23:09 54° 133° (SE) 1,197 4.1 -26.4°
Exits shadow 18:33:10 - 12° (NNE) 3,790 7.0 -28.1°
